Flag for Germany Weather past 2 weeks in Castrop-Rauxel, North Rhine-Westphalia, Germany

Now
72 °F

Passing clouds.


Feels Like: 75 °F
Forecast: 60 / 74 °F
Wind: 5 mph from North

Location: Dortmund / Wickede

Current Time: Sep 16, 2014 at 12:27:53 PM

Latest Report: Sep 16, 2014 at 11:50 AM


Visibility: N/A

Pressure: 30.01 "Hg

Humidity: 69%

Dew point: 61 °F

Location of Castrop-RauxelLocation

Historic Weather in Castrop-Rauxel — Graph

°F

Castrop-Rauxel temperature yesterday

Maximum temperature yesterday: 68 °F (at 1:50 PM)
Minimum temperature yesterday: 50 °F (at 7:20 AM)
Average temperature yesterday: 61 °F

Past Weeks' High & Low Weather Summary

 TemperatureHumidityPressure
High77 °F (Sep 6, 1:50 PM)100% (Sep 3, 9:20 AM)30.24 "Hg (Sep 3, 9:20 AM)
Low43 °F (Sep 12, 5:50 AM)46% (Sep 11, 3:20 PM)29.89 "Hg (Sep 6, 6:50 AM)
Average61 °F76%30.09 "Hg
* Reported Sep 1 11:20 AM — Sep 16 11:20 AM, Castrop-Rauxel, Weather by CustomWeather, © 2014

Note: Actual official high and low records may vary slightly from our data, if they occured in-between our weather recording intervals... More about our weather records

Advertising

Castrop-Rauxel weather history for previous 24 hours

 ConditionsComfort  
Time TempWeatherWind HumidityBarometerVisibility
11:20 AM
Sep 16
68 °FPassing clouds.5 mph73%30.01 "HgN/A
10:50 AM66 °FSunny.3 mph78%30.01 "Hg10 mi
10:20 AM64 °FSunny.3 mph78%30.01 "Hg10 mi
9:50 AM63 °FClear.3 mph83%30.01 "Hg6 mi
9:20 AM61 °FClear.3 mph88%30.01 "Hg6 mi
8:50 AM59 °FClear.2 mph94%30.01 "Hg6 mi
8:20 AM59 °FClear.6 mph94%30.01 "Hg6 mi
7:50 AM55 °FClear.2 mph94%30.01 "Hg4 mi
7:20 AM55 °FFog.2 mph88%30.01 "Hg5 mi
6:50 AM55 °FFog.1 mph94%30.01 "Hg4 mi
6:20 AM55 °FClear.2 mph94%30.01 "Hg6 mi
5:50 AM57 °FClear.5 mph94%30.01 "Hg6 mi
5:20 AM57 °FClear.7 mph88%30.01 "Hg4 mi
10:50 PM
Sep 15
64 °FClear.7 mph78%30.04 "Hg10 mi
10:20 PM64 °FClear.7 mph78%30.01 "Hg10 mi
9:50 PM64 °FClear.7 mph78%30.01 "Hg10 mi
9:20 PM64 °FClear.6 mph78%30.01 "Hg10 mi
8:50 PM64 °FClear.7 mph78%30.01 "Hg10 mi
8:20 PM66 °FSunny.7 mph73%30.01 "Hg10 mi
7:50 PM66 °FSunny.6 mph73%30.01 "Hg10 mi
7:20 PM66 °FPassing clouds.5 mph73%30.01 "HgN/A
6:50 PM68 °FSunny.6 mph69%30.01 "Hg10 mi
6:20 PM68 °FPassing clouds.7 mph69%30.01 "HgN/A
5:50 PM68 °FSunny.7 mph69%30.01 "Hg10 mi
5:20 PM68 °FPassing clouds.7 mph69%30.01 "HgN/A
4:20 PM68 °FPartly sunny.9 mph69%30.01 "HgN/A
3:50 PM68 °FPartly sunny.7 mph73%30.01 "HgN/A
3:20 PM68 °FPartly sunny.7 mph73%30.01 "HgN/A
2:50 PM68 °FPartly sunny.7 mph73%30.04 "HgN/A
2:20 PM68 °FPartly sunny.7 mph69%30.04 "HgN/A
1:50 PM68 °FScattered clouds.6 mph69%30.04 "HgN/A
1:20 PM64 °FPartly sunny.3 mph83%30.04 "HgN/A
12:50 PM59 °FPartly sunny.3 mph88%30.07 "Hg6 mi
12:20 PM59 °FLight rain. Partly sunny.2 mph88%30.07 "HgN/A
Weather by CustomWeather, © 2014

See weather overviewHow to use our weather pages